www.pogodaiklimat.ru

Погода и климат >> Архив погоды >> Италия >> Отранто


ПОГОДА в Отранто

  • Прогноз погоды в Отранто
  • Монитор погоды в Отранто

АРХИВ ПОГОДЫ в Отранто

Время (UTC), дата Ветер
(напр.,м/с)
 
Видим.   Явления Облачность Т
(С)
Тd
(С)
f
(%)
Тe
(С)
Тes
(С)
Комфортность P
(гПа)
Po
(гПа)
Тmin
(С)
Tmax
(С)
R
(мм)
R24
(мм)
S
(см)
10 11.06 Ю 3 н/о н/о +26.3 +24.3 89 +37 +37 очень
душно
1010.4 1000.7
11 11.06 Ю 5 н/о н/о +26.7 +24.7 89 +38 +38 очень
душно
1010.3 1000.6
12 11.06 Ю 5 н/о н/о +28.0 +24.6 82 +40 +40 очень
душно
1010.0 1000.3
13 11.06 ЮВ 4 н/о н/о +27.3 +25.7 91 +40 +40 очень
душно
1009.8 1000.1
14 11.06 Ю 4 н/о н/о +27.5 +25.9 91 +41 +41 опасность
перегрева
1009.4 999.7
15 11.06 В 3 н/о н/о +27.2 +27.0 99 +43 +43 опасность
перегрева
1009.3 999.6
16 11.06 ЮВ 1 н/о н/о +27.3 +26.8 97 +42 +42 опасность
перегрева
1009.4 999.7
17 11.06 ЮЗ 2 н/о н/о +29.1 +26.3 85 +44 +44 опасность
перегрева
1009.6 1000.0
18 11.06 З 1 н/о н/о +28.1 +25.1 84 +41 +41 опасность
перегрева
1010.3 1000.6 +29.4
19 11.06 Ю 2 н/о н/о +24.1 +22.5 91 +32 +32 очень
душно
1011.0 1001.2
20 11.06 Ю 2 н/о н/о +23.2 +23.1 99 +32 +32 очень
душно
1011.6 1001.7
21 11.06 Ю 4 н/о н/о +22.3 +22.2 99 +30 +30 очень
душно
1011.5 1001.6
22 11.06 Ю 4 н/о н/о +22.2 +22.1 99 +29 +29 очень
душно
1011.2 1001.3
23 11.06 Ю 4 н/о н/о +22.0 +21.9 99 +29 +29 очень
душно
1011.0 1001.1
00 12.06 Ю 2 н/о н/о +21.9 +21.8 99 +29 +29 очень
душно
1011.3 1001.4
01 12.06 Ю 4 н/о н/о +21.8 +21.7 99 +28 +28 душно 1011.3 1001.4
02 12.06 Ю 4 н/о н/о +21.6 +21.5 99 +28 +28 очень
душно
1010.8 1000.9
03 12.06 Ю 4 н/о н/о +21.4 +21.3 99 +27 +27 душно 1010.6 1000.7
04 12.06 Ю 4 н/о н/о +21.7 +21.6 99 +28 +28 душно 1011.0 1001.1
05 12.06 ЮВ 4 н/о н/о +22.2 +22.1 99 +29 +29 очень
душно
1011.4 1001.5
06 12.06 Ю 4 н/о н/о +23.0 +22.9 99 +32 +32 очень
душно
1011.8 1002.0 +21.3 507
07 12.06 ЮВ 5 н/о н/о +23.0 +22.9 99 +32 +32 очень
душно
1012.1 1002.2
08 12.06 Ю 7 н/о н/о +23.9 +23.8 99 +32 +32 очень
душно
1012.4 1002.6
09 12.06 Ю 7 н/о н/о +24.5 +24.4 99 +34 +34 очень
душно
1012.9 1003.1
10 12.06 Ю 7 н/о н/о +24.8 +24.7 99 +35 +35 очень
душно
1013.2 1003.4
11 12.06 Ю 7 н/о н/о +24.9 +24.8 99 +35 +35 очень
душно
1013.2 1003.4
12 12.06 Ю 7 н/о н/о +24.8 +24.7 99 +35 +35 очень
душно
1012.7 1002.9
13 12.06 Ю 6 н/о н/о +24.8 +24.7 99 +35 +35 очень
душно
1013.0 1003.2
14 12.06 Ю 7 н/о н/о +25.3 +25.2 99 +36 +36 очень
душно
1012.7 1002.9
15 12.06 Ю 6 н/о н/о +24.1 +24.0 99 +33 +33 очень
душно
1012.5 1002.7
16 12.06 Ю 5 н/о н/о +24.2 +24.1 99 +33 +33 очень
душно
1012.2 1002.4
17 12.06 Ю 4 н/о н/о +23.4 +23.3 99 +33 +33 очень
душно
1012.3 1002.5
18 12.06 Ю 6 н/о н/о +22.9 +22.8 99 +31 +31 очень
душно
1012.6 1002.7 +25.6
19 12.06 Ю 5 н/о н/о +22.2 +22.1 99 +29 +29 очень
душно
1012.9 1003.0
20 12.06 Ю 5 н/о н/о +22.2 +22.1 99 +29 +29 очень
душно
1013.1 1003.2
21 12.06 Ю 5 н/о н/о +21.8 +21.7 99 +28 +28 душно 1013.4 1003.5
22 12.06 Ю 5 н/о н/о +21.7 +21.6 99 +28 +28 душно 1013.4 1003.5
23 12.06 Ю 5 н/о н/о +21.6 +21.5 99 +28 +28 очень
душно
1013.2 1003.3
00 13.06 Ю 5 н/о н/о +21.5 +21.4 99 +27 +27 душно 1012.8 1002.9
01 13.06 Ю 5 н/о н/о +21.4 +21.3 99 +27 +27 душно 1012.4 1002.5
02 13.06 Ю 6 н/о н/о +21.2 +21.1 99 +27 +27 душно 1012.3 1002.4
03 13.06 Ю 5 н/о н/о +21.2 +21.1 99 +27 +27 душно 1012.4 1002.5
04 13.06 Ю 5 н/о н/о +20.9 +20.8 99 +26 +26 душно 1012.9 1003.0
05 13.06 Ю 4 н/о н/о +21.6 +21.5 99 +28 +28 очень
душно
1013.3 1003.4
06 13.06 Ю 4 н/о н/о +22.5 +22.4 99 +30 +30 очень
душно
1013.9 1004.0 +20.8 0.2 1
07 13.06 Ю 5 н/о н/о +23.6 +23.5 99 +32 +32 очень
душно
1014.3 1004.4
08 13.06 Ю 5 н/о н/о +24.4 +24.3 99 +34 +34 очень
душно
1014.6 1004.8
09 13.06 Ю 7 н/о н/о +25.1 +25.0 99 +36 +36 очень
душно
1014.8 1005.0
10 13.06 Ю 7 н/о н/о +25.8 +25.6 99 +38 +38 очень
душно
1014.9 1005.1
11 13.06 ЮЗ 7 н/о н/о +26.1 +25.5 97 +38 +38 очень
душно
1014.9 1005.1
12 13.06 Ю 6 н/о н/о +26.0 +25.7 98 +38 +38 очень
душно
1014.5 1004.7
13 13.06 Ю 7 н/о н/о +25.8 +25.4 98 +38 +38 очень
душно
1014.6 1004.8
14 13.06 Ю 5 н/о н/о +26.0 +25.7 98 +38 +38 очень
душно
1014.7 1004.9
15 13.06 Ю 5 н/о н/о +25.9 +25.3 96 +37 +37 очень
душно
1014.8 1005.0
16 13.06 Ю 5 н/о н/о +25.4 +25.0 98 +36 +36 очень
душно
1014.6 1004.8
17 13.06 Ю 4 н/о н/о +24.7 +24.6 99 +35 +35 очень
душно
1014.7 1004.9
18 13.06 Ю 3 н/о н/о +23.6 +23.5 99 +32 +32 очень
душно
1014.9 1005.0 +26.9
19 13.06 ЮЗ 3 н/о н/о +22.4 +22.3 99 +30 +30 очень
душно
1015.1 1005.2
20 13.06 С 2 н/о н/о +21.9 +21.8 99 +29 +29 очень
душно
1015.8 1005.9
21 13.06 С 2 н/о н/о +21.6 +21.5 99 +28 +28 очень
душно
1016.0 1006.1
22 13.06 С 3 н/о н/о +21.3 +21.2 99 +27 +27 душно 1016.1 1006.1
23 13.06 С 3 н/о н/о +20.3 +20.2 99 +25 +25 комфорт 1016.1 1006.1
00 14.06 С 4 н/о н/о +20.8 +20.7 99 +26 +26 душно 1015.8 1005.8
01 14.06 СЗ 4 н/о н/о +20.7 +20.6 99 +26 +26 душно 1015.5 1005.5
02 14.06 СЗ 5 н/о н/о +20.6 +20.5 99 +25 +25 комфорт 1015.1 1005.1
03 14.06 С 5 н/о н/о +20.7 +20.6 99 +25 +25 комфорт 1015.2 1005.2
04 14.06 С 6 н/о н/о +20.9 +20.8 99 +26 +26 душно 1015.5 1005.5
05 14.06 С 6 н/о н/о +21.0 +20.9 99 +26 +26 душно 1015.8 1005.8
06 14.06 СЗ 6 н/о н/о +21.8 +21.7 99 +28 +28 душно 1015.8 1005.9 +20.3 412
07 14.06 С 6 н/о н/о +23.0 +22.9 99 +32 +32 очень
душно
1016.1 1006.2
08 14.06 С 7 н/о н/о +23.7 +23.6 99 +32 +32 очень
душно
1016.2 1006.3
09 14.06 С 7 н/о н/о +24.3 +24.2 99 +33 +33 очень
душно
1016.4 1006.5
10 14.06 С 7 н/о н/о +24.6 +24.5 99 +34 +34 очень
душно
1016.3 1006.5
11 14.06 С 8 н/о н/о +24.8 +24.7 99 +35 +35 очень
душно
1016.4 1006.6
12 14.06 С 7 н/о н/о +24.8 +24.7 99 +35 +35 очень
душно
1016.1 1006.3 0.2
13 14.06 С 7 н/о н/о +25.3 +24.7 96 +36 +36 очень
душно
1015.6 1005.8
14 14.06 С 7 н/о н/о +25.9 +24.3 91 +36 +36 очень
душно
1015.3 1005.5
15 14.06 С 7 н/о н/о +25.6 +23.0 86 +34 +34 очень
душно
1015.0 1005.2
16 14.06 С 5 н/о н/о +26.6 +24.0 86 +37 +37 очень
душно
1014.5 1004.7
17 14.06 С 6 н/о н/о +24.7 +22.7 89 +33 +33 очень
душно
1014.6 1004.8
18 14.06 СЗ 5 н/о н/о +24.3 +21.9 86 +31 +31 очень
душно
1014.7 1004.9 +26.7 0.2
19 14.06 С 4 н/о н/о +22.9 +21.1 90 +30 +30 очень
душно
1015.0 1005.1
20 14.06 С 4 н/о н/о +22.0 +20.9 93 +28 +28 душно 1014.9 1005.0
21 14.06 СЗ 5 н/о н/о +21.4 +20.9 97 +27 +27 душно 1014.8 1004.9
22 14.06 СЗ 4 н/о н/о +20.9 +20.7 99 +26 +26 душно 1014.8 1004.8
23 14.06 С 4 н/о н/о +21.2 +19.8 92 +26 +26 душно 1013.9 1004.0
00 15.06 СЗ 5 н/о н/о +21.0 +20.1 95 +26 +26 душно 1013.9 1004.0
01 15.06 СЗ 5 н/о н/о +21.4 +19.5 89 +26 +26 душно 1013.5 1003.6
02 15.06 С 4 н/о н/о +21.3 +19.9 92 +26 +26 душно 1013.1 1003.2
03 15.06 С 4 н/о н/о +21.3 +20.8 97 +27 +27 душно 1013.0 1003.1
04 15.06 СЗ 4 н/о н/о +21.4 +21.2 99 +27 +27 душно 1012.6 1002.7
05 15.06 С 4 н/о н/о +22.7 +21.3 92 +30 +30 очень
душно
1012.8 1002.9
06 15.06 С 5 н/о н/о +24.8 +23.7 94 +34 +34 очень
душно
1012.7 1002.9 +20.3 410
07 15.06 С 5 н/о н/о +26.2 +24.2 89 +36 +36 очень
душно
1012.4 1002.7
08 15.06 С 5 н/о н/о +26.3 +25.0 93 +38 +38 очень
душно
1012.7 1002.9
09 15.06 СВ 4 н/о н/о +26.7 +25.1 91 +38 +38 очень
душно
1012.8 1003.1
10 15.06 С 4 н/о н/о +27.7 +26.1 91 +42 +42 опасность
перегрева
1012.6 1002.9
11 15.06 С 6 н/о н/о +26.2 +24.9 93 +37 +37 очень
душно
1012.7 1002.9
12 15.06 С 5 н/о н/о +27.2 +26.0 93 +41 +41 опасность
перегрева
1012.1 1002.4
13 15.06 С 5 н/о н/о +27.9 +25.9 89 +42 +42 опасность
перегрева
1011.9 1002.2
14 15.06 С 4 н/о н/о +26.8 +24.6 88 +38 +38 очень
душно
1011.8 1002.1
15 15.06 С 4 н/о н/о +27.7 +26.5 93 +42 +42 опасность
перегрева
1011.4 1001.7
16 15.06 СВ 4 н/о н/о +29.5 +26.7 85 +46 +46 опасность
перегрева
1011.0 1001.4
17 15.06 С 3 н/о н/о +26.7 +25.4 93 +39 +39 очень
душно
1011.0 1001.3
18 15.06 С 2 н/о н/о +25.8 +24.2 91 +36 +36 очень
душно
1010.8 1001.0 +29.8
19 15.06 СВ 3 н/о н/о +24.9 +24.7 99 +35 +35 очень
душно
1010.7 1000.9
20 15.06 ЮВ 2 н/о н/о +24.6 +24.5 99 +34 +34 очень
душно
1011.1 1001.3
21 15.06 З 2 н/о н/о +22.4 +22.3 99 +30 +30 очень
душно
1011.4 1001.5
22 15.06 СЗ 3 н/о н/о +23.0 +22.9 99 +32 +32 очень
душно
1011.3 1001.5
23 15.06 СЗ 2 н/о н/о +23.4 +23.2 99 +33 +33 очень
душно
1011.1 1001.3
00 16.06 З 3 н/о н/о +22.9 +22.8 99 +31 +31 очень
душно
1010.9 1001.1
01 16.06 З 3 н/о н/о +22.8 +22.2 96 +31 +31 очень
душно
1010.7 1000.8
02 16.06 СЗ 3 н/о н/о +23.8 +22.4 92 +31 +31 очень
душно
1010.4 1000.6
03 16.06 С 5 н/о н/о +24.9 +23.1 90 +33 +33 очень
душно
1010.9 1001.1
04 16.06 СЗ 4 н/о н/о +24.2 +22.6 91 +32 +32 очень
душно
1011.0 1001.2
05 16.06 С 5 н/о н/о +23.8 +23.7 99 +32 +32 очень
душно
1011.0 1001.2
06 16.06 СЗ 5 н/о н/о +25.7 +25.7 100 +38 +38 очень
душно
1011.1 1001.4 +22.2 510
07 16.06 С 6 н/о н/о +26.7 +25.4 93 +39 +39 очень
душно
1011.4 1001.7
08 16.06 С 6 н/о н/о +27.0 +25.8 93 +40 +40 очень
душно
1011.9 1002.2
09 16.06 С 7 н/о н/о +27.4 +25.0 87 +39 +39 очень
душно
1012.3 1002.6
10 16.06 С 7 н/о н/о +27.8 +25.4 87 +41 +41 опасность
перегрева
1012.4 1002.7
11 16.06 С 6 н/о н/о +27.9 +25.3 86 +41 +41 опасность
перегрева
1012.4 1002.7
12 16.06 С 7 н/о н/о +28.1 +25.7 87 +42 +42 опасность
перегрева
1011.9 1002.2
13 16.06 С 6 н/о н/о +28.0 +26.0 89 +42 +42 опасность
перегрева
1011.3 1001.6
14 16.06 С 5 н/о н/о +28.4 +27.2 93 +45 +45 опасность
перегрева
1010.8 1001.1
15 16.06 С 7 н/о н/о +28.3 +26.1 88 +43 +43 опасность
перегрева
1010.7 1001.0
16 16.06 С 7 н/о н/о +26.8 +25.2 91 +39 +39 очень
душно
1011.1 1001.4
17 16.06 С 5 н/о н/о +25.6 +25.5 99 +37 +37 очень
душно
1011.4 1001.6
18 16.06 С 4 н/о н/о +25.1 +24.9 99 +36 +36 очень
душно
1011.4 1001.6 +29.1
19 16.06 СЗ 3 н/о н/о +23.9 +23.8 99 +32 +32 очень
душно
1011.1 1001.3
20 16.06 СЗ 2 н/о н/о +23.0 +22.9 99 +32 +32 очень
душно
1011.9 1002.0
21 16.06 СЗ 3 н/о н/о +22.4 +22.3 99 +30 +30 очень
душно
1011.7 1001.8
22 16.06 СЗ 3 н/о н/о +22.5 +22.4 99 +30 +30 очень
душно
1012.1 1002.2
23 16.06 СЗ 3 н/о н/о +22.6 +22.5 99 +31 +31 очень
душно
1011.9 1002.0
00 17.06 СЗ 4 н/о н/о +22.0 +21.9 99 +29 +29 очень
душно
1011.6 1001.7
01 17.06 СЗ 4 н/о н/о +21.9 +21.8 99 +29 +29 очень
душно
1011.2 1001.3
02 17.06 С 4 н/о н/о +22.2 +22.1 99 +29 +29 очень
душно
1011.4 1001.5
03 17.06 СЗ 4 н/о н/о +21.8 +21.7 99 +28 +28 душно 1011.3 1001.4
04 17.06 СЗ 4 н/о н/о +21.4 +21.3 99 +27 +27 душно 1011.3 1001.4
05 17.06 С 4 н/о н/о +22.9 +22.8 99 +31 +31 очень
душно
1011.7 1001.9
06 17.06 С 5 н/о н/о +25.2 +24.8 98 +36 +36 очень
душно
1012.1 1002.3 +21.3 609
07 17.06 С 6 н/о н/о +25.0 +24.9 99 +35 +35 очень
душно
1012.4 1002.6
08 17.06 С 6 н/о н/о +25.8 +25.4 98 +38 +38 очень
душно
1012.6 1002.8
09 17.06 С 6 н/о н/о +26.2 +26.0 99 +39 +39 очень
душно
1012.6 1002.8
10 17.06 С 5 н/о н/о +27.0 +25.4 91 +39 +39 очень
душно
1012.4 1002.7
11 17.06 С 5 н/о н/о +27.2 +25.5 90 +40 +40 очень
душно
1012.3 1002.6
12 17.06 С 4 н/о н/о +27.5 +25.9 91 +41 +41 опасность
перегрева
1012.0 1002.3
13 17.06 С 5 н/о н/о +27.6 +26.4 93 +42 +42 опасность
перегрева
1011.5 1001.8
14 17.06 С 4 н/о н/о +28.2 +25.6 86 +42 +42 опасность
перегрева
1011.2 1001.5
15 17.06 СВ 3 н/о н/о +27.2 +26.3 95 +41 +41 опасность
перегрева
1011.2 1001.5
16 17.06 СВ 2 н/о н/о +26.5 +26.5 100 +40 +40 очень
душно
1011.1 1001.4
17 17.06 С 2 н/о н/о +25.5 +25.4 99 +37 +37 очень
душно
1011.6 1001.8
18 17.06 СВ 1 н/о н/о +24.7 +24.6 99 +35 +35 очень
душно
1011.7 1001.9 +28.7
19 17.06 С 2 н/о н/о +23.5 +23.4 99 +32 +32 очень
душно
1012.1 1002.3
20 17.06 СЗ 1 н/о н/о +23.0 +22.9 99 +32 +32 очень
душно
1012.6 1002.7
21 17.06 З 1 н/о н/о +22.5 +22.4 99 +30 +30 очень
душно
1012.5 1002.6
22 17.06 штиль 0 н/о н/о +21.9 +21.8 99 +29 +29 очень
душно
1012.6 1002.7
23 17.06 СЗ 3 н/о н/о +22.1 +22.0 99 +29 +29 очень
душно
1012.6 1002.7
00 18.06 СЗ 3 н/о н/о +22.1 +22.0 99 +29 +29 очень
душно
1012.5 1002.6
01 18.06 СЗ 3 н/о н/о +21.3 +21.2 99 +27 +27 душно 1012.4 1002.5
02 18.06 СЗ 3 н/о н/о +21.4 +21.3 99 +27 +27 душно 1012.4 1002.5
03 18.06 С 3 н/о н/о +21.6 +21.5 99 +28 +28 очень
душно
1012.7 1002.8
05 18.06 С 3 н/о н/о +22.4 +22.3 99 +30 +30 очень
душно
1013.1 1003.2
06 18.06 С 4 н/о н/о +23.8 +23.7 99 +32 +32 очень
душно
1013.2 1003.4 +21.0 108
07 18.06 С 4 н/о н/о +24.7 +24.6 99 +35 +35 очень
душно
1013.4 1003.6
08 18.06 С 5 н/о н/о +25.3 +25.2 99 +36 +36 очень
душно
1013.4 1003.6

 

Местоположение метеостанции Отранто (Италия): широта 40.10 долгота 18.48 высота над уровнем моря 79 м.

В архиве по умолчанию представлена погода в Отранто за последнюю неделю. Архивные данные за месяц целиком и за предыдущие месяцы, начиная с января 2011 года, Вы можете получить, выбрав интересующий диапазон дат из раскрывающегося списка и нажав кнопку "Ввод!".


*Определитесь, кто Вы:
робот инопланетянин человек

Внимание! Время в таблицах - всемирное. Для получения местного времени необходимо прибавить поправку, которая равна 1 ч.

Смотрите также архив погоды в соседних городах и на ближайших метеорологических станциях:

Погода в Лечче (Италия) (32 км)
Погода в Санта-Мария-ди-Леуке (Италия) (33 км)
Погода в Бриндиси (Италия) (76 км)
Погода на Сазани (Албания) (81 км)
Погода во Влёре (Албания) (94 км)
Погода в Мартина-Франка (Италия) (122 км)
Погода в Саранде (Албания) (132 км)
Погода в Керкире (Греция) (134 км)
Погода в Пунто Алисе (Италия) (136 км)
Погода в Джинозе (Италия) (141 км)

Пояснения к столбцам:

Ветер - указаны скорость ветра в м/с - средняя за 10 мин, порывы в срок и между сроками (в фигурных скобках) и направление, откуда дует ветер: С - северный, СВ - северо-восточный, В - восточный, ЮВ - юго-восточный, Ю - южный, ЮЗ - юго-западный, З - западный, СЗ - северо-западный.
Видимость - горизонтальная дальность видимости в метрах или километрах. При видимости от 1 до 10 км при отсутствии осадков обычно наблюдается дымка, при ухудшении видимости до 1 км и менее - туман. В сухую погоду видимость может ухудшаться дымом, пылью или мглою.
Явления - указаны атмосферные явления, наблюдавшиеся в срок или в последний час перед сроком; фигурными скобками обозначены явления, наблюдавшиеся между сроками (за 1-3 часа до срока); квадратными скобками обозначены град или гололедные отложения с указанием их диаметра в мм.
Облачность - указаны через наклонную черту общая и нижняя облачность в баллах и высота нижней границы облаков в метрах; квадратными скобками обозначены формы облаков: Ci - перистые, Cs - перисто-слоистые, Cc - перисто-кучевые, Ac - высококучевые, As - высокослоистые, Sc - слоисто-кучевые, Ns - слоисто-дождевые, Cu - кучевые, Cb - кучево-дождевые. Подробнее классификацию облаков см. в Атласе облаков (PDF).
T - Температура воздуха - температура, измеренная на высоте 2 м над землей.
Td - Температура точки росы - температура, при понижении до которой содержащийся в воздухе водяной пар достигнет насыщения.
f - Относительная влажность воздуха - влажноcть воздуха, измеренная на высоте 2 м над землей.
Te - Эффективная температура - температура, которую ощущает одетый по сезону человек в тени. Характеристика душности погоды. При расчете учитывается влияние влажности воздуха и скорости ветра на теплоощущения человека.
Tes - Эффективная температура на солнце - температура, которую ощущает человек, с поправкой на солнечный нагрев. Характеристика знойности погоды. Зависит от высоты солнца над горизонтом, облачности и скорости ветра. Ночью, в пасмурную погоду, а также при ветре 12 м/с и более поправка равна нулю.
P - Атмосферное давление - приведенное к уровню моря атмосферное давление.
Po - Атмосферное давление - измеренное на уровне метеостанции атмосферное давление.
Tmin - Минимальная температура - минимум температуры воздуха на высоте 2 м над землей.
Tmax - Максимальная температура - максимум температуры воздуха на высоте 2 м над землей.
R - Количество осадков - Количество выпавших осадков за период времени, мм. При наведении курсора мыши на число - период времени, за который выпало указанное количество осадков.
R24 - Количество осадков - Количество выпавших осадков за 24 часа, мм.
S - Снежный покров - Высота снежного покрова, см. При наведении курсора мыши на число - состояние снежного покрова и степень покрытия местности в баллах.